"read_dt","SO2 (ppb)","flags","PMT voltage (V)","lamp voltage (V)","lamp intensity (Hz)","internal temp (C)","react chamber temp (C)","sample flow (l/min)","pres (mmHg)","SO2 bkg (ppb)","SO2 coefficient"
2014-12-20 00:00:00,2009E-3,5C000000,-0724,0835,12058,028.0,045.4,0.453,745.8,01.17,0.508
2014-12-20 00:01:00,2051E-3,5C000000,-0724,0836,12016,028.0,045.4,0.454,745.8,01.17,0.508
2014-12-20 00:02:00,2037E-3,5C000000,-0724,0836,12108,028.0,045.4,0.453,745.8,01.17,0.508
2014-12-20 00:03:00,2051E-3,5C000000,-0724,0837,12281,028.0,045.4,0.453,745.8,01.17,0.508
2014-12-20 00:04:00,2195E-3,5C000000,-0724,0835,12293,028.0,045.4,0.454,745.8,01.17,0.508
2014-12-20 00:05:00,1926E-3,5C000000,-0724,0836,12193,028.0,045.4,0.453,745.8,01.17,0.508
2014-12-20 00:06:00,2050E-3,5C000000,-0724,0837,12213,028.0,045.4,0.453,745.7,01.17,0.508
2014-12-20 00:07:00,2037E-3,5C000000,-0724,0836,12190,028.0,045.4,0.453,745.7,01.17,0.508
2014-12-20 00:08:00,2053E-3,5C000000,-0724,0837,12348,028.0,045.4,0.454,745.7,01.17,0.508
2014-12-20 00:09:00,1973E-3,5C000000,-0724,0837,12240,028.0,045.4,0.453,745.7,01.17,0.508
2014-12-20 00:10:00,2088E-3,5C000000,-0724,0836,12245,028.0,045.4,0.453,745.7,01.17,0.508
2014-12-20 00:11:00,2148E-3,5C000000,-0724,0836,12195,028.0,045.4,0.453,745.7,01.17,0.508
2014-12-20 00:12:00,2033E-3,5C000000,-0724,0835,11994,028.0,045.4,0.454,745.7,01.17,0.508
2014-12-20 00:13:00,2132E-3,5C000000,-0724,0836,12052,028.0,045.4,0.453,745.7,01.17,0.508
2014-12-20 00:14:00,1906E-3,5C000000,-0724,0836,12136,028.0,045.4,0.453,745.7,01.17,0.508
2014-12-20 00:15:00,1888E-3,5C000000,-0724,0835,11950,028.0,045.4,0.454,745.7,01.17,0.508
2014-12-20 00:16:00,1877E-3,5C000000,-0724,0836,12272,028.0,045.4,0.454,745.7,01.17,0.508
2014-12-20 00:17:00,2053E-3,5C000000,-0724,0836,12098,028.0,045.4,0.453,745.7,01.17,0.508
2014-12-20 00:18:00,2148E-3,5C000000,-0724,0836,12191,028.0,045.4,0.453,745.7,01.17,0.508
2014-12-20 00:19:00,1943E-3,5C000000,-0724,0835,11989,028.0,045.4,0.454,745.7,01.17,0.508
2014-12-20 00:20:00,2029E-3,5C000000,-0724,0836,12093,028.0,045.4,0.454,745.7,01.17,0.508
2014-12-20 00:21:00,2038E-3,5C000000,-0724,0837,12125,028.0,045.4,0.453,745.7,01.17,0.508
2014-12-20 00:22:00,1927E-3,5C000000,-0724,0836,12273,028.0,045.4,0.453,745.7,01.17,0.508
2014-12-20 00:23:00,2054E-3,5C000000,-0724,0836,12236,028.0,045.4,0.454,745.6,01.17,0.508
2014-12-20 00:24:00,2122E-3,5C000000,-0724,0837,12101,028.0,045.4,0.453,745.6,01.17,0.508
2014-12-20 00:25:00,1887E-3,5C000000,-0724,0836,12297,028.0,045.4,0.453,745.6,01.17,0.508
2014-12-20 00:26:00,2075E-3,5C000000,-0724,0835,12214,028.0,045.4,0.454,745.6,01.17,0.508
2014-12-20 00:27:00,2069E-3,5C000000,-0724,0835,12102,028.0,045.4,0.453,745.6,01.17,0.508
2014-12-20 00:28:00,2099E-3,5C000000,-0724,0836,12226,028.0,045.4,0.453,745.7,01.17,0.508
2014-12-20 00:29:00,2116E-3,5C000000,-0724,0837,12202,028.0,045.4,0.454,745.6,01.17,0.508
2014-12-20 00:30:00,2134E-3,5C000000,-0724,0836,12162,027.9,045.4,0.453,745.6,01.17,0.508
2014-12-20 00:31:00,2093E-3,5C000000,-0724,0836,12188,028.0,045.4,0.453,745.6,01.17,0.508
2014-12-20 00:32:00,2022E-3,5C000000,-0724,0836,12076,028.0,045.4,0.454,745.6,01.17,0.508
2014-12-20 00:33:00,1944E-3,5C000000,-0724,0837,12197,028.0,045.4,0.453,745.6,01.17,0.508
2014-12-20 00:34:00,2006E-3,5C000000,-0724,0835,12097,028.0,045.4,0.453,745.6,01.17,0.508
2014-12-20 00:35:00,1878E-3,5C000000,-0724,0836,12268,028.0,045.4,0.454,745.6,01.17,0.508
2014-12-20 00:36:00,1994E-3,5C000000,-0724,0835,12070,028.0,045.4,0.453,745.6,01.17,0.508
2014-12-20 00:37:00,2022E-3,5C000000,-0724,0835,12144,028.0,045.4,0.454,745.6,01.17,0.508
2014-12-20 00:38:00,1794E-3,5C000000,-0724,0837,12133,028.0,045.4,0.453,745.6,01.17,0.508
2014-12-20 00:39:00,2116E-3,5C000000,-0724,0836,12042,028.0,045.4,0.454,745.6,01.17,0.508
2014-12-20 00:40:00,2060E-3,5C000000,-0724,0837,12116,028.0,045.4,0.453,745.6,01.17,0.508
2014-12-20 00:41:00,2010E-3,5C000000,-0724,0836,12046,027.9,045.4,0.453,745.6,01.17,0.508
2014-12-20 00:42:00,1930E-3,5C000000,-0724,0837,11987,027.9,045.4,0.454,745.6,01.17,0.508
2014-12-20 00:43:00,1969E-3,5C000000,-0724,0836,12285,027.9,045.4,0.453,745.6,01.17,0.508
2014-12-20 00:44:00,2017E-3,5C000000,-0724,0835,12215,027.9,045.4,0.454,745.6,01.17,0.508
2014-12-20 00:45:00,2083E-3,5C000000,-0724,0836,12251,027.9,045.4,0.453,745.6,01.17,0.508
2014-12-20 00:46:00,1961E-3,5C000000,-0724,0836,12237,027.9,045.4,0.453,745.6,01.17,0.508
2014-12-20 00:47:00,2026E-3,5C000000,-0724,0836,12125,027.9,045.4,0.454,745.6,01.17,0.508
2014-12-20 00:48:00,1855E-3,5C000000,-0724,0836,12211,027.9,045.4,0.453,745.6,01.17,0.508
2014-12-20 00:49:00,1835E-3,5C000000,-0724,0837,12217,028.0,045.4,0.454,745.6,01.17,0.508
2014-12-20 00:50:00,2013E-3,5C000000,-0724,0836,12123,028.0,045.4,0.454,745.6,01.17,0.508
2014-12-20 00:51:00,2034E-3,5C000000,-0724,0835,12059,027.9,045.4,0.453,745.6,01.17,0.508
2014-12-20 00:52:00,2031E-3,5C000000,-0724,0836,12123,027.9,045.4,0.454,745.6,01.17,0.508
2014-12-20 00:53:00,2036E-3,5C000000,-0724,0837,12032,027.9,045.4,0.453,745.6,01.17,0.508
2014-12-20 00:54:00,1983E-3,5C000000,-0724,0837,12150,027.9,045.4,0.453,745.6,01.17,0.508
2014-12-20 00:55:00,1990E-3,5C000000,-0724,0835,12114,027.9,045.4,0.454,745.6,01.17,0.508
2014-12-20 00:56:00,2043E-3,5C000000,-0724,0837,12104,028.0,045.4,0.453,745.6,01.17,0.508
2014-12-20 00:57:00,2061E-3,5C000000,-0724,0835,12177,027.9,045.5,0.454,745.6,01.17,0.508
2014-12-20 00:58:00,2142E-3,5C000000,-0724,0837,12133,027.9,045.4,0.453,745.6,01.17,0.508
2014-12-20 00:59:00,2030E-3,5C000000,-0724,0837,12246,027.9,045.4,0.453,745.5,01.17,0.508
2014-12-20 01:00:00,2001E-3,5C000000,-0724,0837,12181,027.9,045.4,0.454,745.6,01.17,0.508
2014-12-20 01:01:00,1950E-3,5C000000,-0724,0836,12163,027.9,045.4,0.453,745.6,01.17,0.508
2014-12-20 01:02:00,2088E-3,5C000000,-0724,0837,12145,027.9,045.4,0.454,745.6,01.17,0.508
2014-12-20 01:03:00,1990E-3,5C000000,-0724,0837,12211,027.9,045.4,0.453,745.6,01.17,0.508
2014-12-20 01:04:00,1953E-3,5C000000,-0724,0837,12370,027.9,045.5,0.453,745.6,01.17,0.508
2014-12-20 01:05:00,2048E-3,5C000000,-0724,0837,12156,027.9,045.4,0.454,745.5,01.17,0.508
2014-12-20 01:06:00,2078E-3,5C000000,-0724,0836,12164,027.9,045.4,0.453,745.5,01.17,0.508
2014-12-20 01:07:00,2133E-3,5C000000,-0724,0836,12139,027.9,045.4,0.454,745.5,01.17,0.508
2014-12-20 01:08:00,2019E-3,5C000000,-0724,0837,12177,027.9,045.4,0.453,745.5,01.17,0.508
2014-12-20 01:09:00,2026E-3,5C000000,-0724,0837,12198,027.9,045.4,0.453,745.5,01.17,0.508
2014-12-20 01:10:00,1984E-3,5C000000,-0724,0836,12203,027.9,045.4,0.454,745.5,01.17,0.508
2014-12-20 01:11:00,2142E-3,5C000000,-0724,0837,12236,027.9,045.4,0.453,745.5,01.17,0.508
2014-12-20 01:12:00,2020E-3,5C000000,-0724,0836,12263,027.9,045.4,0.454,745.5,01.17,0.508
2014-12-20 01:13:00,2045E-3,5C000000,-0724,0835,12026,027.9,045.4,0.453,745.5,01.17,0.508
2014-12-20 01:14:00,2072E-3,5C000000,-0724,0836,12138,027.9,045.4,0.453,745.5,01.17,0.508
2014-12-20 01:15:00,1939E-3,5C000000,-0724,0835,12111,027.9,045.5,0.454,745.5,01.17,0.508
2014-12-20 01:16:00,1942E-3,5C000000,-0724,0836,11918,027.9,045.4,0.453,745.5,01.17,0.508
2014-12-20 01:17:00,1929E-3,5C000000,-0724,0836,12128,027.9,045.4,0.454,745.4,01.17,0.508
2014-12-20 01:18:00,2020E-3,5C000000,-0724,0837,12002,027.9,045.4,0.453,745.4,01.17,0.508
2014-12-20 01:19:00,2143E-3,5C000000,-0724,0836,11964,027.9,045.4,0.453,745.4,01.17,0.508
2014-12-20 01:20:00,2001E-3,5C000000,-0724,0836,12114,027.9,045.4,0.454,745.4,01.17,0.508
2014-12-20 01:21:00,2030E-3,5C000000,-0724,0836,12188,027.9,045.4,0.453,745.4,01.17,0.508
2014-12-20 01:22:00,2096E-3,5C000000,-0724,0836,12190,027.9,045.4,0.454,745.4,01.17,0.508
2014-12-20 01:23:00,1978E-3,5C000000,-0724,0836,12102,027.9,045.4,0.454,745.4,01.17,0.508
2014-12-20 01:24:00,2156E-3,5C000000,-0724,0836,12169,027.9,045.4,0.453,745.4,01.17,0.508
2014-12-20 01:25:00,2014E-3,5C000000,-0724,0836,12194,027.9,045.4,0.454,745.4,01.17,0.508
2014-12-20 01:26:00,2068E-3,5C000000,-0724,0836,12082,027.9,045.4,0.453,745.4,01.17,0.508
2014-12-20 01:27:00,2143E-3,5C000000,-0724,0836,12139,027.9,045.4,0.454,745.4,01.17,0.508
2014-12-20 01:28:00,1967E-3,5C000000,-0724,0837,12127,027.9,045.4,0.454,745.4,01.17,0.508
2014-12-20 01:29:00,1978E-3,5C000000,-0724,0837,12293,027.8,045.4,0.453,745.4,01.17,0.508
2014-12-20 01:30:00,2022E-3,5C000000,-0724,0837,12031,027.8,045.4,0.454,745.4,01.17,0.508
2014-12-20 01:31:00,1879E-3,5C000000,-0724,0836,12184,027.8,045.4,0.454,745.3,01.17,0.508
2014-12-20 01:32:00,2090E-3,5C000000,-0724,0837,12161,027.8,045.4,0.453,745.4,01.17,0.508
2014-12-20 01:33:00,1992E-3,5C000000,-0724,0837,12183,027.8,045.4,0.454,745.4,01.17,0.508
2014-12-20 01:34:00,1800E-3,5C000000,-0724,0836,11853,027.8,045.4,0.454,745.3,01.17,0.508
2014-12-20 01:35:00,2122E-3,5C000000,-0724,0837,12159,027.8,045.4,0.453,745.3,01.17,0.508
2014-12-20 01:36:00,2024E-3,5C000000,-0724,0836,12091,027.8,045.4,0.454,745.3,01.17,0.508
2014-12-20 01:37:00,2036E-3,5C000000,-0724,0836,12122,027.8,045.4,0.454,745.3,01.17,0.508
2014-12-20 01:38:00,2129E-3,5C000000,-0724,0836,12157,027.8,045.4,0.453,745.3,01.17,0.508
2014-12-20 01:39:00,2041E-3,5C000000,-0724,0836,11942,027.8,045.4,0.454,745.3,01.17,0.508
2014-12-20 01:40:00,1920E-3,5C000000,-0724,0835,12178,027.8,045.4,0.453,745.3,01.17,0.508
2014-12-20 01:41:00,2123E-3,5C000000,-0724,0836,12120,027.8,045.4,0.453,745.3,01.17,0.508
2014-12-20 01:42:00,2056E-3,5C000000,-0724,0836,12345,027.8,045.4,0.454,745.3,01.17,0.508
2014-12-20 01:43:00,1882E-3,5C000000,-0724,0837,12036,027.8,045.4,0.454,745.3,01.17,0.508
2014-12-20 01:44:00,2048E-3,5C000000,-0724,0836,12141,027.8,045.4,0.453,745.3,01.17,0.508
2014-12-20 01:45:00,1944E-3,5C000000,-0724,0837,12037,027.8,045.4,0.454,745.3,01.17,0.508
2014-12-20 01:46:00,1961E-3,5C000000,-0724,0836,12164,027.8,045.4,0.453,745.3,01.17,0.508
2014-12-20 01:47:00,1862E-3,5C000000,-0724,0836,11950,027.8,045.4,0.453,745.3,01.17,0.508
2014-12-20 01:48:00,2076E-3,5C000000,-0724,0837,12165,027.8,045.4,0.454,745.3,01.17,0.508
2014-12-20 01:49:00,2069E-3,5C000000,-0724,0837,11795,027.8,045.4,0.453,745.3,01.17,0.508
2014-12-20 01:50:00,2028E-3,5C000000,-0724,0837,12048,027.8,045.4,0.453,745.3,01.17,0.508
2014-12-20 01:51:00,2007E-3,5C000000,-0724,0837,12088,027.8,045.4,0.454,745.3,01.17,0.508
2014-12-20 01:52:00,1887E-3,5C000000,-0724,0836,12072,027.8,045.4,0.453,745.3,01.17,0.508
2014-12-20 01:53:00,1996E-3,5C000000,-0724,0836,12154,027.8,045.4,0.454,745.3,01.17,0.508
2014-12-20 01:54:00,2083E-3,5C000000,-0724,0836,12083,027.8,045.4,0.454,745.3,01.17,0.508
2014-12-20 01:55:00,2090E-3,5C000000,-0724,0836,12096,027.8,045.4,0.453,745.3,01.17,0.508
2014-12-20 01:56:00,1937E-3,5C000000,-0724,0837,12242,027.8,045.4,0.454,745.3,01.17,0.508
2014-12-20 01:57:00,1961E-3,5C000000,-0724,0837,12112,027.8,045.4,0.454,745.3,01.17,0.508
2014-12-20 01:58:00,1985E-3,5C000000,-0724,0836,12228,027.8,045.4,0.453,745.3,01.17,0.508
2014-12-20 01:59:00,2125E-3,5C000000,-0724,0837,12039,027.8,045.4,0.454,745.3,01.17,0.508
2014-12-20 02:00:00,2181E-3,5C000000,-0724,0837,12156,027.8,045.4,0.454,745.3,01.17,0.508
2014-12-20 02:01:00,1881E-3,5C000000,-0724,0836,12080,027.8,045.4,0.453,745.3,01.17,0.508
2014-12-20 02:02:00,2085E-3,5C000000,-0724,0836,12015,027.8,045.4,0.454,745.3,01.17,0.508
2014-12-20 02:03:00,2143E-3,5C000000,-0724,0836,11956,027.8,045.4,0.453,745.3,01.17,0.508
2014-12-20 02:04:00,2034E-3,5C000000,-0724,0835,11999,027.8,045.4,0.453,745.2,01.17,0.508
2014-12-20 02:05:00,2034E-3,5C000000,-0724,0836,12164,027.8,045.4,0.454,745.3,01.17,0.508
2014-12-20 02:06:00,1926E-3,5C000000,-0724,0836,12180,027.8,045.4,0.453,745.2,01.17,0.508
2014-12-20 02:07:00,2116E-3,5C000000,-0724,0836,12151,027.8,045.5,0.453,745.2,01.17,0.508
2014-12-20 02:08:00,2028E-3,5C000000,-0724,0837,12149,027.8,045.4,0.454,745.2,01.17,0.508
2014-12-20 02:09:00,2144E-3,5C000000,-0724,0837,12121,027.7,045.4,0.454,745.2,01.17,0.508
2014-12-20 02:10:00,1960E-3,5C000000,-0724,0836,12158,027.7,045.4,0.453,745.2,01.17,0.508
2014-12-20 02:11:00,1973E-3,5C000000,-0724,0836,12169,027.7,045.4,0.454,745.3,01.17,0.508
2014-12-20 02:12:00,2137E-3,5C000000,-0724,0836,12067,027.8,045.4,0.453,745.3,01.17,0.508
2014-12-20 02:13:00,1940E-3,5C000000,-0724,0836,12051,027.7,045.4,0.454,745.3,01.17,0.508
2014-12-20 02:14:00,2059E-3,5C000000,-0724,0835,12148,027.7,045.4,0.454,745.2,01.17,0.508
2014-12-20 02:15:00,2107E-3,5C000000,-0724,0836,12134,027.7,045.4,0.454,745.2,01.17,0.508
2014-12-20 02:16:00,2223E-3,5C000000,-0724,0835,12190,027.7,045.4,0.454,745.2,01.17,0.508
2014-12-20 02:17:00,2126E-3,5C000000,-0724,0837,12055,027.7,045.4,0.454,745.2,01.17,0.508
2014-12-20 02:18:00,1979E-3,5C000000,-0724,0836,12092,027.7,045.4,0.454,745.2,01.17,0.508
2014-12-20 02:19:00,2049E-3,5C000000,-0724,0836,12159,027.7,045.4,0.453,745.2,01.17,0.508
2014-12-20 02:20:00,2052E-3,5C000000,-0724,0836,12108,027.7,045.4,0.454,745.2,01.17,0.508
2014-12-20 02:21:00,1909E-3,5C000000,-0724,0836,12004,027.7,045.4,0.454,745.2,01.17,0.508
2014-12-20 02:22:00,1968E-3,5C000000,-0724,0836,11995,027.7,045.4,0.453,745.2,01.17,0.508
2014-12-20 02:23:00,2021E-3,5C000000,-0724,0836,12075,027.7,045.4,0.454,745.2,01.17,0.508
2014-12-20 02:24:00,1961E-3,5C000000,-0724,0836,12195,027.7,045.4,0.453,745.2,01.17,0.508
2014-12-20 02:25:00,2109E-3,5C000000,-0724,0836,12233,027.7,045.4,0.454,745.3,01.17,0.508
2014-12-20 02:26:00,2009E-3,5C000000,-0724,0836,12194,027.7,045.4,0.453,745.2,01.17,0.508
2014-12-20 02:27:00,1975E-3,5C000000,-0724,0836,12043,027.7,045.4,0.454,745.3,01.17,0.508
2014-12-20 02:28:00,2074E-3,5C000000,-0724,0836,12231,027.7,045.4,0.454,745.2,01.17,0.508
2014-12-20 02:29:00,2113E-3,5C000000,-0724,0837,12280,027.7,045.4,0.453,745.2,01.17,0.508
2014-12-20 02:30:00,2147E-3,5C000000,-0724,0836,12250,027.7,045.4,0.454,745.2,01.17,0.508
2014-12-20 02:31:00,1918E-3,5C000000,-0724,0836,11973,027.7,045.4,0.453,745.2,01.17,0.508
2014-12-20 02:32:00,2026E-3,5C000000,-0724,0836,12186,027.7,045.4,0.454,745.2,01.17,0.508
2014-12-20 02:33:00,2003E-3,5C000000,-0724,0836,12076,027.7,045.4,0.453,745.2,01.17,0.508
2014-12-20 02:34:00,2046E-3,5C000000,-0724,0836,12155,027.7,045.4,0.454,745.2,01.17,0.508
2014-12-20 02:35:00,1938E-3,5C000000,-0724,0837,12417,027.7,045.4,0.454,745.2,01.17,0.508
2014-12-20 02:36:00,2099E-3,5C000000,-0724,0836,12324,027.7,045.4,0.453,745.2,01.17,0.508
2014-12-20 02:37:00,1933E-3,5C000000,-0724,0836,11983,027.7,045.4,0.454,745.2,01.17,0.508
2014-12-20 02:38:00,2004E-3,5C000000,-0724,0836,12131,027.6,045.4,0.454,745.2,01.17,0.508
2014-12-20 02:39:00,2050E-3,5C000000,-0724,0836,12115,027.6,045.4,0.454,745.2,01.17,0.508
2014-12-20 02:40:00,1976E-3,5C000000,-0724,0836,12011,027.6,045.4,0.454,745.2,01.17,0.508
2014-12-20 02:41:00,2050E-3,5C000000,-0724,0836,12104,027.6,045.4,0.453,745.2,01.17,0.508
2014-12-20 02:42:00,1947E-3,5C000000,-0724,0837,12013,027.6,045.4,0.454,745.2,01.17,0.508
2014-12-20 02:43:00,2063E-3,5C000000,-0724,0836,12159,027.6,045.4,0.454,745.2,01.17,0.508
2014-12-20 02:44:00,1940E-3,5C000000,-0724,0835,12266,027.6,045.4,0.454,745.2,01.17,0.508
2014-12-20 02:45:00,2024E-3,5C000000,-0724,0835,12166,027.6,045.4,0.454,745.2,01.17,0.508
2014-12-20 02:46:00,1935E-3,5C000000,-0724,0835,12229,027.6,045.4,0.454,745.2,01.17,0.508
2014-12-20 02:47:00,1897E-3,5C000000,-0724,0835,12096,027.6,045.4,0.454,745.2,01.17,0.508
2014-12-20 02:48:00,2120E-3,5C000000,-0724,0837,12147,027.6,045.4,0.454,745.2,01.17,0.508
2014-12-20 02:49:00,2149E-3,5C000000,-0724,0836,12172,027.6,045.4,0.454,745.2,01.17,0.508
2014-12-20 02:50:00,1937E-3,5C000000,-0724,0837,12040,027.6,045.4,0.454,745.2,01.17,0.508
2014-12-20 02:51:00,2157E-3,5C000000,-0724,0836,12101,027.6,045.4,0.454,745.2,01.17,0.508
2014-12-20 02:52:00,2111E-3,5C000000,-0724,0837,12039,027.6,045.4,0.454,745.2,01.17,0.508
2014-12-20 02:53:00,1890E-3,5C000000,-0724,0836,12289,027.6,045.4,0.454,745.2,01.17,0.508
2014-12-20 02:54:00,2009E-3,5C000000,-0724,0836,12022,027.6,045.4,0.454,745.2,01.17,0.508
2014-12-20 02:55:00,2074E-3,5C000000,-0724,0835,12003,027.6,045.4,0.454,745.2,01.17,0.508
2014-12-20 02:56:00,2004E-3,5C000000,-0724,0837,12139,027.6,045.4,0.453,745.2,01.17,0.508
2014-12-20 02:57:00,2100E-3,5C000000,-0724,0836,12210,027.6,045.4,0.453,745.2,01.17,0.508
2014-12-20 02:58:00,2123E-3,5C000000,-0724,0836,12083,027.6,045.4,0.454,745.2,01.17,0.508
2014-12-20 02:59:00,1978E-3,5C000000,-0724,0836,12138,027.6,045.4,0.454,745.2,01.17,0.508
2014-12-20 03:00:00,1954E-3,5C000000,-0724,0837,12065,027.6,045.4,0.453,745.2,01.17,0.508
2014-12-20 03:01:00,1942E-3,5C000000,-0724,0836,12245,027.6,045.4,0.453,745.2,01.17,0.508
2014-12-20 03:02:00,2132E-3,5C000000,-0724,0835,12068,027.6,045.4,0.453,745.2,01.17,0.508
2014-12-20 03:03:00,1946E-3,5C000000,-0724,0836,12097,027.6,045.4,0.453,745.2,01.17,0.508
2014-12-20 03:04:00,1990E-3,5C000000,-0724,0835,12296,027.6,045.4,0.453,745.2,01.17,0.508
2014-12-20 03:05:00,1998E-3,5C000000,-0724,0836,12045,027.6,045.4,0.453,745.2,01.17,0.508
2014-12-20 03:06:00,2066E-3,5C000000,-0724,0836,12010,027.6,045.4,0.453,745.2,01.17,0.508
2014-12-20 03:07:00,2016E-3,5C000000,-0724,0837,12036,027.6,045.4,0.454,745.2,01.17,0.508
2014-12-20 03:08:00,1965E-3,5C000000,-0724,0836,12062,027.6,045.4,0.453,745.2,01.17,0.508
2014-12-20 03:09:00,1958E-3,5C000000,-0724,0836,12123,027.6,045.4,0.454,745.2,01.17,0.508
2014-12-20 03:10:00,2070E-3,5C000000,-0724,0837,12135,027.6,045.4,0.453,745.2,01.17,0.508
2014-12-20 03:11:00,1907E-3,5C000000,-0724,0837,12048,027.6,045.4,0.453,745.2,01.17,0.508
2014-12-20 03:12:00,1937E-3,5C000000,-0724,0836,12205,027.6,045.4,0.453,745.2,01.17,0.508
2014-12-20 03:13:00,1987E-3,5C000000,-0724,0837,12119,027.6,045.4,0.453,745.1,01.17,0.508
2014-12-20 03:14:00,1930E-3,5C000000,-0724,0837,12093,027.6,045.4,0.453,745.1,01.17,0.508
2014-12-20 03:15:00,2200E-3,5C000000,-0724,0836,11808,027.6,045.4,0.453,745.1,01.17,0.508
2014-12-20 03:16:00,2050E-3,5C000000,-0724,0836,12251,027.5,045.4,0.454,745.2,01.17,0.508
2014-12-20 03:17:00,2046E-3,5C000000,-0724,0836,11942,027.5,045.4,0.454,745.2,01.17,0.508
2014-12-20 03:18:00,2097E-3,5C000000,-0724,0836,12190,027.5,045.4,0.453,745.1,01.17,0.508
2014-12-20 03:19:00,1970E-3,5C000000,-0724,0836,12228,027.5,045.4,0.453,745.1,01.17,0.508
2014-12-20 03:20:00,2173E-3,5C000000,-0724,0836,12104,027.5,045.4,0.454,745.1,01.17,0.508
2014-12-20 03:21:00,2014E-3,5C000000,-0724,0836,12218,027.5,045.4,0.453,745.1,01.17,0.508
2014-12-20 03:22:00,2036E-3,5C000000,-0724,0836,12166,027.5,045.4,0.454,745.1,01.17,0.508
2014-12-20 03:23:00,2007E-3,5C000000,-0724,0836,12167,027.5,045.4,0.453,745.2,01.17,0.508
2014-12-20 03:24:00,2070E-3,5C000000,-0724,0837,12155,027.5,045.4,0.453,745.2,01.17,0.508
2014-12-20 03:25:00,2019E-3,5C000000,-0724,0836,12276,027.5,045.4,0.453,745.1,01.17,0.508
2014-12-20 03:26:00,2017E-3,5C000000,-0724,0835,12045,027.5,045.4,0.454,745.1,01.17,0.508
2014-12-20 03:27:00,2082E-3,5C000000,-0724,0836,12111,027.5,045.4,0.454,745.1,01.17,0.508
2014-12-20 03:28:00,2080E-3,5C000000,-0724,0835,11982,027.5,045.4,0.454,745.1,01.17,0.508
2014-12-20 03:29:00,1974E-3,5C000000,-0724,0836,12141,027.5,045.4,0.454,745.1,01.17,0.508
2014-12-20 03:30:00,1958E-3,5C000000,-0724,0836,12045,027.5,045.4,0.454,745.1,01.17,0.508
2014-12-20 03:31:00,2008E-3,5C000000,-0724,0836,12031,027.5,045.4,0.453,745.1,01.17,0.508
2014-12-20 03:32:00,2113E-3,5C000000,-0724,0836,11876,027.5,045.4,0.453,745.1,01.17,0.508
2014-12-20 03:33:00,2044E-3,5C000000,-0724,0836,12210,027.5,045.4,0.453,745.1,01.17,0.508
2014-12-20 03:34:00,2197E-3,5C000000,-0724,0836,12096,027.5,045.4,0.453,745.1,01.17,0.508
2014-12-20 03:35:00,2139E-3,5C000000,-0724,0836,11984,027.5,045.4,0.454,745.1,01.17,0.508
2014-12-20 03:36:00,2044E-3,5C000000,-0724,0837,12133,027.5,045.4,0.454,745.1,01.17,0.508
2014-12-20 03:37:00,1900E-3,5C000000,-0724,0836,12209,027.5,045.4,0.453,745.1,01.17,0.508
2014-12-20 03:38:00,2048E-3,5C000000,-0724,0836,12184,027.5,045.4,0.453,745.1,01.17,0.508
2014-12-20 03:39:00,1934E-3,5C000000,-0724,0836,11881,027.5,045.4,0.454,745.0,01.17,0.508
2014-12-20 03:40:00,1983E-3,5C000000,-0724,0836,12240,027.5,045.4,0.453,745.0,01.17,0.508
2014-12-20 03:41:00,1885E-3,5C000000,-0724,0837,12020,027.5,045.4,0.453,745.0,01.17,0.508
2014-12-20 03:42:00,1984E-3,5C000000,-0724,0837,12175,027.5,045.4,0.454,745.0,01.17,0.508
2014-12-20 03:43:00,2010E-3,5C000000,-0724,0836,12258,027.5,045.4,0.454,745.0,01.17,0.508
2014-12-20 03:44:00,1899E-3,5C000000,-0724,0836,12163,027.5,045.4,0.453,745.0,01.17,0.508
2014-12-20 03:45:00,2016E-3,5C000000,-0724,0837,11862,027.5,045.4,0.454,745.0,01.17,0.508
2014-12-20 03:46:00,2079E-3,5C000000,-0724,0836,12033,027.5,045.4,0.453,745.0,01.17,0.508
2014-12-20 03:47:00,2090E-3,5C000000,-0724,0836,12287,027.5,045.4,0.453,745.0,01.17,0.508
2014-12-20 03:48:00,2028E-3,5C000000,-0724,0836,12204,027.5,045.4,0.454,745.0,01.17,0.508
2014-12-20 03:49:00,2086E-3,5C000000,-0724,0836,12236,027.5,045.4,0.454,745.0,01.17,0.508
2014-12-20 03:50:00,2049E-3,5C000000,-0724,0836,12070,027.5,045.4,0.453,745.0,01.17,0.508
2014-12-20 03:51:00,2037E-3,5C000000,-0724,0836,12196,027.5,045.4,0.453,745.0,01.17,0.508
2014-12-20 03:52:00,2010E-3,5C000000,-0724,0837,12258,027.4,045.4,0.453,745.0,01.17,0.508
2014-12-20 03:53:00,1910E-3,5C000000,-0724,0836,12117,027.4,045.4,0.453,745.0,01.17,0.508
2014-12-20 03:54:00,2030E-3,5C000000,-0724,0836,12239,027.4,045.4,0.454,745.0,01.17,0.508
2014-12-20 03:55:00,2000E-3,5C000000,-0724,0835,11999,027.4,045.4,0.453,745.0,01.17,0.508
2014-12-20 03:56:00,1980E-3,5C000000,-0724,0836,12236,027.4,045.4,0.453,745.0,01.17,0.508
2014-12-20 03:57:00,1976E-3,5C000000,-0724,0836,11999,027.4,045.4,0.453,745.0,01.17,0.508
2014-12-20 03:58:00,1974E-3,5C000000,-0724,0837,12077,027.4,045.4,0.453,745.0,01.17,0.508
2014-12-20 03:59:00,2040E-3,5C000000,-0724,0836,12269,027.4,045.4,0.454,744.9,01.17,0.508
2014-12-20 04:00:00,2042E-3,5C000000,-0724,0836,12228,027.4,045.4,0.454,744.9,01.17,0.508
2014-12-20 04:01:00,1971E-3,5C000000,-0724,0836,12086,027.4,045.4,0.453,744.9,01.17,0.508
2014-12-20 04:02:00,2083E-3,5C000000,-0724,0836,12060,027.4,045.4,0.454,744.9,01.17,0.508
2014-12-20 04:03:00,1956E-3,5C000000,-0724,0837,12219,027.4,045.4,0.454,744.9,01.17,0.508
2014-12-20 04:04:00,1970E-3,5C000000,-0724,0836,12191,027.4,045.4,0.453,744.9,01.17,0.508
2014-12-20 04:05:00,2094E-3,5C000000,-0724,0835,12039,027.4,045.4,0.454,744.9,01.17,0.508
2014-12-20 04:06:00,2010E-3,5C000000,-0724,0836,12247,027.4,045.4,0.454,744.9,01.17,0.508
2014-12-20 04:07:00,1988E-3,5C000000,-0724,0836,12305,027.4,045.4,0.454,744.9,01.17,0.508
2014-12-20 04:08:00,2082E-3,5C000000,-0724,0836,12128,027.4,045.4,0.454,744.9,01.17,0.508
2014-12-20 04:09:00,2024E-3,5C000000,-0724,0837,12188,027.4,045.4,0.453,744.9,01.17,0.508
2014-12-20 04:10:00,1976E-3,5C000000,-0724,0836,12095,027.4,045.4,0.454,744.9,01.17,0.508
2014-12-20 04:11:00,2067E-3,5C000000,-0724,0835,12016,027.4,045.4,0.454,744.9,01.17,0.508
2014-12-20 04:12:00,2159E-3,5C000000,-0724,0835,12165,027.4,045.4,0.454,744.9,01.17,0.508
2014-12-20 04:13:00,1865E-3,5C000000,-0724,0836,11985,027.4,045.4,0.454,744.9,01.17,0.508
2014-12-20 04:14:00,1911E-3,5C000000,-0724,0836,12173,027.4,045.4,0.454,744.9,01.17,0.508
2014-12-20 04:15:00,2027E-3,5C000000,-0724,0836,12055,027.4,045.4,0.453,745.0,01.17,0.508
2014-12-20 04:16:00,2139E-3,5C000000,-0724,0837,12178,027.4,045.4,0.454,745.0,01.17,0.508
2014-12-20 04:17:00,1895E-3,5C000000,-0724,0836,12088,027.4,045.4,0.454,745.0,01.17,0.508
2014-12-20 04:18:00,1972E-3,5C000000,-0724,0835,12097,027.4,045.4,0.454,745.0,01.17,0.508
2014-12-20 04:19:00,2071E-3,5C000000,-0724,0836,12204,027.4,045.4,0.454,745.0,01.17,0.508
2014-12-20 04:20:00,2131E-3,5C000000,-0724,0835,12069,027.4,045.4,0.453,745.0,01.17,0.508